• Join FlightAware (Why Join?)
  • Login
  • US Flag 
12:46AM EDT


 

Airport Tracker/Info


-or-


 

Live Flight TrackerFlight Track Log ✈ SWA765 ✈ 09-May-2013 ✈ KBNA - KMSY

Flight Track Log - Related Links

Times and Time Zones

All times are in EDT time to prevent confusion due to time zone crossing. See the SWA765 flight status page for this flight to view local times or setup timezone preferences in your user account.

Time Position Orientation Groundspeed Altitude Reporting Facility
EDT Latitude Longitude Course Direction KTS MPH feet Rate Location/Type
12:35PM 36.0833 -86.7167 219° Southwest 203 234 3,700  Level Nashville TRACON
12:36PM 36.0333 -86.7833 227° Southwest 268 308 6,700 3,120 Climbing Nashville TRACON
12:37PM 35.9550 -86.8592 218° Southwest 294 338 10,900 3,540 Climbing Memphis Center
12:38PM 35.8861 -86.9367 222° Southwest 315 362 14,800 3,660 Climbing Memphis Center
12:39PM 35.8175 -87.0136 222° Southwest 337 388 18,300 3,300 Climbing Memphis Center
12:40PM 35.7361 -87.0911 218° Southwest 364 419 21,400 3,000 Climbing Memphis Center
12:41PM 35.6339 -87.1717 213° Southwest 387 445 24,300 2,820 Climbing Memphis Center
12:42PM 35.5314 -87.2394 208° Southwest 411 473 27,100 2,520 Climbing Memphis Center
12:43PM 35.4286 -87.3044 207° Southwest 420 483 29,400 1,980 Climbing Memphis Center
12:44PM 35.3219 -87.3744 208° Southwest 428 493 31,100 2,040 Climbing Memphis Center
12:45PM 35.2108 -87.4447 207° Southwest 434 499 33,500 2,340 Climbing Memphis Center
12:46PM 35.1000 -87.5169 208° Southwest 441 507 35,800 2,280 Climbing Memphis Center
12:47PM 34.9928 -87.5764 204° Southwest 442 509 38,100 1,560 Climbing Memphis Center
12:48PM 34.8814 -87.6358 204° Southwest 437 503 39,000 420 Climbing Memphis Center
12:49PM 34.7842 -87.6769 199° South 423 487 39,000  Level Memphis Center
12:50PM 34.6708 -87.7333 202° Southwest 428 493 39,000  Level Memphis Center
12:51PM 34.5425 -87.7928 201° Southwest 433 498 39,000  Level Memphis Center
12:52PM 34.4331 -87.8439 201° Southwest 438 504 39,000 480 Level Memphis Center
12:53PM 34.3236 -87.8975 202° Southwest 433 498 40,000 480 Climbing Memphis Center
12:54PM 34.2078 -87.9536 202° Southwest 433 498 40,000  Level Memphis Center
12:55PM 34.0983 -88.0069 202° Southwest 433 498 40,000  Level Memphis Center
12:56PM 33.9886 -88.0550 200° South 433 498 40,000  Level Memphis Center
12:57PM 33.8789 -88.1078 202° Southwest 427 491 40,000  Level Memphis Center
12:58PM 33.7775 -88.1606 203° Southwest 434 499 40,000  Level Memphis Center
12:59PM 33.6678 -88.2106 201° Southwest 434 499 40,000  Level Memphis Center
01:00PM 33.5581 -88.2633 202° Southwest 434 499 40,000  Level Memphis Center
01:01PM 33.4422 -88.3208 203° Southwest 419 482 40,000  Level Memphis Center
01:02PM 33.3344 -88.3731 202° Southwest 419 482 40,000  Level Memphis Center
01:03PM 33.2311 -88.4425 209° Southwest 419 482 40,000  Level Memphis Center
01:04PM 33.1319 -88.5092 209° Southwest 419 482 40,000 -600 Level Memphis Center
01:05PM 33.0308 -88.5781 210° Southwest 419 482 38,900 -1,020 Descending Memphis Center
01:06PM 32.9294 -88.6469 210° Southwest 419 482 38,000 -480 Descending Memphis Center
01:07PM 32.8281 -88.7156 210° Southwest 419 482 38,000  Level Memphis Center
01:08PM 32.7286 -88.7842 210° Southwest 419 482 38,000  Level Memphis Center
01:09PM 32.6272 -88.8525 210° Southwest 419 482 38,000  Level Memphis Center
01:10PM 32.5278 -88.9183 209° Southwest 419 482 38,000  Level Memphis Center
01:11PM 32.4283 -88.9864 210° Southwest 414 476 38,000 -420 Level Memphis Center
01:12PM 32.3247 -89.0544 209° Southwest 414 476 37,200 -900 Descending Memphis Center
01:13PM 32.2211 -89.1247 210° Southwest 414 476 36,300 -960 Descending Memphis Center
01:14PM 32.1194 -89.1922 209° Southwest 419 482 35,300 -1,020 Descending Memphis Center
01:15PM 32.0158 -89.2597 209° Southwest 419 482 34,300 -1,440 Descending Memphis Center
01:18PM 31.7742 -89.4200 209° Southwest 422 486 30,300 -1,800 Descending Houston Center
01:19PM 31.6586 -89.4981 210° Southwest 403 464 28,000 -1,560 Descending Houston Center
01:20PM 31.5892 -89.5653 220° Southwest 378 435 27,100 -1,020 Descending Houston Center
01:21PM 31.4936 -89.6556 219° Southwest 371 427 25,900 -1,080 Descending Houston Center
01:22PM 31.4147 -89.7306 219° Southwest 369 425 24,900 -1,020 Descending Houston Center
01:23PM 31.3375 -89.8033 219° Southwest 359 413 23,900 -1,020 Descending Houston Center
01:24PM 31.2606 -89.8769 219° Southwest 359 413 22,900 -1,020 Descending Houston Center
01:25PM 31.1711 -89.9272 206° Southwest 360 414 21,900 -1,020 Descending Houston Center
01:26PM 31.0767 -89.9692 201° Southwest 366 421 20,900 -1,080 Descending Houston Center
01:27PM 30.9639 -90.0181 200° South 361 415 19,700 -1,440 Descending Houston Center
01:28PM 30.8725 -90.0581 201° Southwest 356 410 17,900 -1,920 Descending Houston Center
01:29PM 30.7842 -90.0978 201° Southwest 343 395 16,100 -1,740 Descending Houston Center
01:30PM 30.6972 -90.1306 198° South 325 374 14,600 -1,680 Descending Houston Center
01:31PM 30.6231 -90.1600 199° South 309 356 12,900 -1,620 Descending Houston Center
01:31PM 30.6167 -90.1628 201° Southwest 315 362 12,700 -1,800 Descending Houston Center
01:32PM 30.5425 -90.1925 199° South 302 348 11,100 -1,980 Descending Houston Center
01:32PM 30.5225 -90.2006 199° South 302 348 10,700 -1,320 Descending Houston Center
01:33PM 30.4558 -90.2272 199° South 285 328 9,500 -1,440 Descending Houston Center
01:34PM 30.3794 -90.2594 200° South 267 307 8,000 -1,560 Descending Houston Center
01:35PM 30.3092 -90.2861 198° South 265 305 6,400 -1,500 Descending Houston Center
01:36PM 30.2350 -90.3156 199° South 258 297 4,800 -1,500 Descending Houston Center
01:37PM 30.1586 -90.3453 199° South 250 288 3,100 -1,320 Descending Houston Center
01:38PM 30.0947 -90.3603 191° South 252 290 2,000 -600 Descending Houston Center
01:39PM 30.0317 -90.3644 183° South 192 221 2,000 -540 Level Houston Center
01:40PM 30.0100 -90.3414 137° Southeast 136 157 1,100 -1,020 Descending Houston Center
01:41PM 30.0094 -90.3367 98° East 180 207 900 -840 Descending Houston Center
01:41PM 30.0006 -90.3008 106° East 127 146 300 -720 Descending Houston Center
01:42PM 30.0006 -90.2964 90° East 148 170 200 -360 Descending Houston Center
01:44PM 29.9934 -90.2580 170° South  Level Estimated